Погода в Речном

Россия / Республика Татарстан     55°21′52″N   50°16′26″E
темп.,
°C
ветер,
м/с
пор.,
м/с
влажн.,
%
обл.,
%
осадки,
мм/ч
давл.,
гПа
погр.,
м
2 июля, сб
сб200:00+12всв411944 0.0 1014222
03:00+11св49945 0.0 1015188
06:00+14св48845 0.0 1015278
09:00+18св686970 0.0 1015672
12:00+20св566040 0.0 10141096
15:00+21св465750 0.1 10141568
18:00+19всв247190 0.1 1013137
21:00+15св227853 0.3 101315
3 июля, вс
вс300:00+13всв22856 0.0 101215
03:00+12св22880 0.0 101220
06:00+15св24800 0.0 1012167
09:00+19ссв45670 0.0 1011558
12:00+21св45540 0.0 10111646
15:00+21с566487 0.0 1011904
18:00+19ссв4878100 0.2 1010406
21:00+15ссв5129057 0.3 1011437
4 июля, пн
пн400:00+13ссв4992100 0.0 1011276
03:00+11с510880 0.0 1011251
06:00+13с61279100 0.0 1011534
09:00+15ссв7107733 0.0 1012724
12:00+19св6865100 0.0 10121312
15:00+20ссв585758 0.1 10121798
18:00+17ссв597799 0.9 1013331
21:00+14ссв338629 1.0 101428
5 июля, вт
вт500:00+13ссв34886 0.0 101463
03:00+12св228955 0.0 101519
06:00+14св34819 0.0 1016211
09:00+18ссв456759 0.0 1016768
12:00+20св46555 0.0 10161464
15:00+20всв35535 0.0 10171526
18:00+18вюв357162 0.0 1017192
21:00+14ююв337446 0.0 101832
6 июля, ср
ср600:00+12ю22769 0.0 101826
03:00+11ююз22795 0.0 101924
06:00+15ююз22745 0.0 1019122
09:00+19ююз23630 0.0 1019590
12:00+22юз33580 0.0 10191140
15:00+23юз33563 0.0 10181380
18:00+22зюз23720 0.0 1018135
21:00+16ю47810 0.0 101995